Regional Weather Roundup
Issued by NWS Northern Indiana

Home | Current Version | Previous Version | Text Only | Print | Product List | Glossary On
Versions: 1 2 3 4 5 6 7 8 9 10 11 12 13 14 15 16 17 18 19 20 21 22 23 24 25 26 27 28 29 30 31 32 33 34 35 36 37 38 39 40 41 42 43 44 45 46 47 48 49 50
000
ASUS43 KIWX 241110
RWRIWX

KIWX WEATHER ROUNDUP
NATIONAL WEATHER SERVICE NORTHERN INDIANA
600 AM EST FRI FEB 24 2017

NOTE: "FAIR" INDICATES FEW OR NO CLOUDS BELOW 12,000 FEET WITH NO
SIGNIFICANT WEATHER AND/OR OBSTRUCTIONS TO VISIBILITY.

* THESE STATIONS ARE NOT UNDER NWS QUALITY CONTROL. THEY ALSO MAY NOT
  REPORT WEATHER SUCH AS PRECIPITATION OR FOG.

INZ001>027-241200-
NORTHERN INDIANA

CITY           SKY/WX    TMP DP  RH WIND       PRES   REMARKS
GARY*          CLOUDY    39  37  93 VRB6      29.74R
VALPARAISO     CLOUDY    59  55  87 S10       29.51F
MICHIGAN CITY* CLOUDY    50  50 100 S5        29.51F FOG
LAPORTE*       CLOUDY    58  54  88 S8        29.52F
KNOX*          CLOUDY    59  37  44 S13       29.52S
SOUTH BEND     CLOUDY    51  51 100 SE7       29.53F FOG
GOSHEN         MOCLDY    50  46  86 SE13      29.56F FOG
MONTICELLO*    PTCLDY    59  53  81 S9G16     29.53S
LOGANSPORT*    PTCLDY    55  54  94 S12       29.56S
ROCHESTER*     PTCLDY    59  54  82 S8        29.55F
WARSAW*        MOCLDY    52  52 100 SE6       29.56F FOG
ANGOLA*        CLOUDY    45  45 100 SE12      29.60F
FORT WAYNE     PTCLDY    50  48  93 SE7       29.61F
HUNTINGTON*    CLEAR     56  54  92 S8        29.58F
PERU/GRISSOM   CLOUDY    57  57 100 S13       29.55S
MARION*        CLOUDY    57  53  86 S13       29.59F

$$
INZ028>050-241200-
CENTRAL INDIANA

CITY           SKY/WX    TMP DP  RH WIND       PRES   REMARKS
LAFAYETTE      MOCLDY    59  55  87 S8        29.54S
KOKOMO*        MOCLDY    57  54  89 S16       29.58F
MUNCIE*        CLOUDY    61  54  77 S15       29.61F
INDIANAPOLIS   CLOUDY    57  52  83 S8        29.61R

$$
MIZ043>046-050>051-056>058-064>065-071>073-077>080-241200-
SOUTHWEST LOWER MICHIGAN

CITY           SKY/WX    TMP DP  RH WIND       PRES   REMARKS
BATTLE CREEK   CLOUDY    40  39  97 E8        29.62S
BENTON HARBOR  CLOUDY    49  46  90 E13G22    29.52F
COLDWATER*     CLOUDY    45  45 100 SE14G20   29.59F FOG
HILLSDALE*     CLOUDY    39  39 100 E10G16    29.62S FOG
HOLLAND        CLOUDY    38  35  89 E20G30    29.57F
GRAND RAPIDS   CLOUDY    36  35  96 E20G30    29.61F
KALAMAZOO      CLOUDY    43  39  86 E9        29.60F
STURGIS*       CLOUDY    46  46  99 SE10      29.57F FOG
THREE RIVERS*  CLOUDY    46  44  96 E5        29.59S

$$
OHZ001>008-015>018-024>025-241200-
NORTHWEST OHIO

CITY           SKY/WX    TMP DP  RH WIND       PRES   REMARKS
WAUSEON*       FOG       43  43 100 E9        29.65F VSB 1/2
DEFIANCE       MOCLDY    41  41 100 E8        29.64F
FINDLAY        PTCLDY    50  46  86 SE7       29.65F
TOLEDO EXPRESS CLOUDY    41  41 100 E9        29.65F FOG
TOLEDO METCALF CLOUDY    42  42 100 NE8       29.68F FOG
LIMA           CLEAR     56  53  90 SE8       29.65F

$$
AND FOR LAKE MICHIGAN COASTAL AND OPEN LAKE BUOY OBSERVATIONS

STATION/POSITION TEMP    WIND        PRES    VSBY  WAVE
                 AIR SEA DIR/SP/G                  HT/PER
                 (F)     (DEG/KT/KT) (MB)    (MI)  (FT/S)
CALUMET HARBOR    39     300/  5/  8  998.8F
MICHIGAN CITY     46     110/  6/  7   N/A
BURNS HARBOR      45     210/  4/  6  999.3

$$
&&




USA.gov is the U.S. government's official web portal to all federal, state and local government web resources and services.